Temperature
11 11 11 11 11 10 10 9 8 8 8 8 7 8 7 7 7 6 6 6 6 6 6 6 6 6 6 6 6 6 6 6 6 6 6 6 6 6
11 11 11 10 10 10 9 9 8 7 7 7 7 7 7 6 6 6 6 5 5 5 5 5 5 5 5 5 5 5 5 5 5 5 5 5 5 5
11 10 10 10 10 9 9 8 8 7 7 6 6 6 6 6 5 5 5 5 5 4 4 4 4 4 4 4 4 4 4 4 5 5 5 5 5 5
10 10 10 9 9 9 8 8 7 7 6 5 5 5 5 5 5 4 4 4 4 4 4 4 4 4 4 4 4 4 4 4 4 4 4 4 4 4
9 9 9 9 8 8 8 7 7 6 6 5 5 5 4 4 4 4 4 4 4 3 3 3 3 3 3 3 3 3 3 3 3 3 3 3 3 3
9 9 8 8 8 7 7 7 6 6 5 5 4 4 4 4 4 3 3 3 3 3 3 2 2 2 2 2 2 2 2 2 3 3 3 3 3 3
8 8 8 7 7 6 6 6 5 5 4 4 4 4 4 3 3 3 3 3 3 2 2 2 2 2 2 2 2 2 2 2 2 2 2 2 2 2
7 7 7 6 6 6 5 5 4 4 4 3 3 3 3 3 3 3 2 2 2 2 2 2 1 1 1 1 1 1 1 1 1 1 1 1 1 1
6 6 6 5 5 5 4 4 3 3 3 3 3 3 3 2 2 2 2 2 1 2 1 1 1 1 1 1 1 1 1 1 1 1 1 1 1 1
6 5 5 5 4 4 3 3 3 3 3 2 2 2 2 2 2 2 2 1 1 1 1 1 1 1 1 1 0 0 0 0 0 0 0 0 0 0
5 4 4 4 3 3 3 2 2 2 2 2 2 2 2 1 1 1 1 1 0 1 0 0 0 0 0 0 0 -0 -0 -0 -0 -0 -0 -1 -1 -1
4 4 3 3 3 2 2 2 1 1 1 1 1 1 1 1 1 0 0 0 -0 -0 0 -0 0 -0 -0 -0 -0 -1 -1 -1 -1 -1 -1 -1 -1 -1
3 3 3 2 2 1 1 1 1 0 0 0 0 0 0 0 -0 -0 -0 -0 -1 -1 -0 -1 -1 -1 -1 -1 -1 -1 -1 -1 -1 -1 -1 -1 -1 -1
3 2 2 2 1 1 0 0 0 -0 -0 -1 -1 -1 -1 -1 -1 -1 -1 -1 -1 -1 -1 -1 -1 -1 -1 -1 -1 -1 -1 -1 -1 -1 -2 -2 -2 -2
2 2 1 1 0 -0 -0 -0 -1 -1 -1 -1 -1 -1 -1 -1 -2 -1 -1 -1 -1 -1 -2 -2 -2 -2 -2 -2 -2 -2 -1 -1 -2 -2 -2 -2 -2 -2
1 1 0 -0 -0 -1 -1 -1 -1 -1 -1 -2 -2 -2 -2 -2 -2 -2 -2 -2 -2 -2 -2 -2 -2 -2 -2 -2 -2 -2 -2 -2 -2 -2 -2 -2 -2 -2
1 0 -0 -0 -1 -1 -1 -1 -1 -1 -2 -2 -2 -2 -2 -3 -3 -3 -3 -3 -3 -2 -2 -2 -2 -2 -2 -2 -2 -2 -2 -2 -2 -2 -2 -2 -2 -2
0 -0 -0 -1 -1 -1 -1 -1 -2 -2 -2 -2 -2 -3 -3 -3 -3 -3 -3 -3 -3 -3 -3 -3 -3 -3 -3 -3 -2 -2 -3 -3 -3 -3 -3 -3 -2 -3
-1 -1 -1 -1 -1 -1 -2 -2 -2 -2 -2 -2 -3 -3 -3 -3 -3 -3 -3 -3 -3 -3 -3 -3 -3 -4 -4 -3 -3 -3 -3 -3 -3 -3 -3 -3 -3 -3
-1 -1 -1 -1 -1 -2 -2 -2 -2 -2 -3 -3 -3 -3 -3 -3 -3 -3 -3 -3 -3 -4 -4 -3 -3 -4 -4 -4 -4 -3 -3 -3 -3 -3 -4 -4 -3 -3
-1 -1 -1 -2 -2 -2 -2 -2 -2 -3 -3 -3 -3 -3 -3 -3 -4 -4 -4 -4 -4 -4 -4 -3 -4 -4 -5 -5 -4 -3 -3 -4 -4 -4 -4 -4 -4 -3
-1 -2 -2 -2 -2 -2 -2 -3 -3 -3 -3 -3 -3 -3 -3 -4 -4 -4 -4 -4 -4 -4 -4 -4 -4 -5 -5 -5 -4 -4 -4 -4 -5 -5 -5 -5 -5 -5
-2 -2 -2 -2 -2 -3 -3 -3 -3 -3 -3 -3 -3 -4 -4 -4 -4 -4 -4 -4 -4 -4 -4 -5 -5 -5 -5 -5 -5 -5 -5 -5 -5 -5 -5 -5 -5 -5
Wind_Speed
6 6 5 4 3 3 4 4 4 4 4 3 2 2 2 1 1 1 1 3 4 5 5 5 5 6 6 6 6 7 7 6 6 6 5 5 4 4
5 6 6 4 4 3 4 4 5 5 4 1 1 1 2 2 2 1 2 4 4 4 4 4 4 5 5 5 5 6 7 7 8 8 8 8 8 6
6 6 6 5 4 4 3 4 4 5 5 2 1 1 2 2 2 1 2 2 3 4 3 4 4 4 4 4 4 5 6 6 7 8 9 9 9 8
7 6 5 4 4 3 3 4 4 4 4 4 2 2 2 2 2 2 1 2 2 3 4 4 4 4 5 5 5 6 7 7 8 8 9 9 8 8
7 7 6 5 5 3 3 3 3 3 3 3 2 1 1 2 2 1 1 1 2 3 3 3 4 4 5 6 6 7 7 7 7 8 9 9 8 8
5 5 5 5 4 4 3 3 3 3 3 3 2 2 2 2 2 2 2 2 1 1 3 3 4 4 5 4 5 5 5 5 6 6 7 7 8 7
6 5 4 4 3 3 3 3 3 3 3 3 3 2 3 3 4 3 3 2 1 1 1 1 2 2 3 4 4 3 3 4 4 5 5 6 6 6
6 5 4 4 4 4 3 2 1 3 4 3 3 4 4 4 3 3 3 3 3 3 3 2 2 2 1 2 3 3 3 4 4 4 5 5 5 5
6 6 4 4 5 4 4 4 2 1 1 3 4 4 3 4 4 5 4 3 2 3 3 3 3 3 2 1 2 3 4 4 3 3 3 3 3 3
6 6 6 6 5 5 4 3 3 2 1 1 2 2 2 2 4 4 3 3 2 1 2 3 3 3 3 3 3 4 4 4 4 3 2 2 1 1
5 5 6 6 7 7 5 4 3 2 3 3 3 2 1 2 4 4 4 3 2 3 3 2 2 2 3 3 3 3 4 5 4 4 3 2 2 2
5 5 6 6 8 8 6 5 4 3 3 2 3 3 3 3 3 2 3 3 2 3 4 3 3 2 2 3 4 4 5 5 5 5 4 4 4 4
5 5 5 9 9 8 6 4 4 3 3 3 2 2 2 2 2 1 1 1 2 2 3 4 2 3 2 2 3 4 5 5 5 5 5 5 6 6
6 5 5 9 9 8 6 5 6 5 3 3 3 2 2 2 1 2 2 2 2 1 4 4 2 3 3 2 2 3 4 5 5 5 5 5 7 8
5 7 7 9 8 6 7 8 7 5 4 4 4 3 2 2 3 2 2 3 4 3 3 2 2 2 2 2 2 2 2 3 5 5 5 5 6 6
5 7 9 8 6 6 6 6 5 5 5 5 4 3 3 4 3 3 2 2 2 2 2 2 2 3 3 3 3 3 3 3 3 4 5 6 7 8
7 5 5 6 6 6 5 6 5 5 6 5 5 4 5 5 4 4 3 3 3 3 3 3 3 3 3 3 4 5 5 4 4 4 4 6 7 9
8 6 7 7 7 7 7 7 7 7 6 6 6 6 6 6 5 5 4 5 5 4 4 4 3 2 3 6 10 7 5 5 5 5 5 5 7 7
8 7 7 7 7 7 7 7 7 6 6 6 6 6 6 6 6 6 6 6 6 6 5 5 5 4 4 4 5 11 6 4 4 5 6 6 6 6
6 6 7 7 7 7 7 7 6 6 6 7 7 7 7 7 7 7 7 8 7 6 6 6 7 8 7 3 2 4 10 7 5 5 5 6 7 10
7 6 6 6 6 6 6 6 7 7 7 7 7 8 7 8 8 8 8 10 9 7 8 8 8 9 4 2 4 5 6 13 11 6 4 4 5 5
6 6 6 6 6 6 6 6 6 7 7 7 7 7 8 8 9 9 8 8 8 8 9 6 5 7 7 7 8 7 5 5 11 16 15 11 5 4
5 5 5 5 6 6 6 7 7 7 7 7 7 7 7 8 8 8 8 9 8 8 8 7 6 7 8 9 9 8 9 7 6 7 10 17 22 23
Wind_Direction
194 196 199 196 195 205 216 224 237 248 243 216 195 167 168 169 152 159 104 92 85 82 79 70 56 44 36 40 39 44 45 51 63 69 81 98 110 126
184 189 193 188 185 194 206 220 232 244 248 218 206 188 174 169 150 151 129 123 109 102 93 80 67 57 47 45 44 49 48 64 69 70 76 87 92 92
178 185 188 183 184 189 195 211 222 230 243 244 218 199 194 189 164 145 134 127 120 114 110 94 77 65 56 59 65 62 61 72 74 77 77 81 86 87
176 178 183 178 189 192 197 207 218 225 239 244 226 202 211 191 168 147 111 100 107 115 115 105 88 81 73 68 73 76 75 74 74 74 76 81 83 84
175 179 178 181 188 188 200 210 215 222 234 238 223 195 183 169 158 139 134 114 98 112 121 113 105 98 88 79 76 77 76 73 72 73 75 77 83 89
165 170 172 179 183 182 197 210 214 219 221 224 221 207 190 174 181 186 196 190 166 108 118 108 111 107 102 97 88 83 83 82 80 78 76 76 77 84
156 158 157 153 159 179 194 202 205 217 217 218 219 205 199 192 204 192 196 178 196 202 184 157 145 128 116 116 112 104 103 101 95 91 90 86 83 85
157 153 148 147 146 149 148 155 199 219 218 218 223 225 224 216 191 185 177 183 209 190 196 189 195 190 168 154 132 137 137 128 118 108 99 92 90 91
161 162 157 155 158 152 139 131 116 65 278 245 238 238 233 213 192 194 196 203 202 154 181 191 191 203 187 191 184 179 169 160 148 136 122 108 97 94
165 170 168 167 169 163 156 145 130 104 58 247 254 263 261 228 204 199 183 152 112 150 200 197 187 198 185 199 192 196 189 184 182 177 166 149 128 119
164 173 176 175 165 168 166 163 161 142 89 74 60 60 90 156 163 153 158 172 185 183 195 202 174 181 194 198 187 197 199 195 197 199 200 203 215 233
168 176 187 186 175 182 185 181 185 174 156 135 117 105 108 121 146 186 184 186 179 184 179 187 169 169 195 193 201 207 207 206 212 217 224 227 230 242
176 183 186 187 189 193 198 198 188 172 175 173 164 150 139 122 111 93 124 181 187 188 162 171 171 181 192 185 196 206 215 216 217 223 229 233 233 240
184 184 183 186 193 194 199 186 177 179 186 189 198 198 187 165 124 95 80 71 68 118 157 160 166 179 177 188 197 192 214 222 227 232 235 239 240 240
184 179 180 187 192 197 196 190 188 194 197 203 210 207 193 165 150 133 116 99 86 85 121 156 173 175 196 208 198 197 211 220 222 231 234 237 240 236
183 179 184 190 194 194 192 198 204 207 210 218 212 194 175 175 188 184 179 174 177 168 140 155 177 189 208 223 226 228 219 220 215 224 235 244 244 242
167 168 179 185 192 196 200 204 205 206 214 216 208 199 195 195 196 190 191 195 208 201 190 185 192 213 241 237 232 233 229 229 228 221 231 247 247 242
173 185 193 199 204 205 206 208 209 212 212 210 210 209 206 203 199 194 199 209 217 216 205 189 185 203 231 239 223 235 233 233 229 224 231 250 258 247
196 198 201 205 208 209 211 212 214 212 205 207 211 211 210 208 206 206 206 212 221 222 213 197 195 205 232 249 204 209 224 224 222 227 230 238 258 263
207 208 209 209 208 210 212 214 215 209 205 210 213 213 211 211 212 215 214 216 220 220 218 210 209 212 222 249 255 212 215 223 226 235 241 245 260 270
211 213 213 212 211 211 212 213 213 212 210 209 213 213 212 213 218 219 220 220 221 223 225 225 219 210 213 227 251 246 222 220 226 233 237 247 261 262
216 215 215 214 212 212 212 210 212 214 212 215 217 216 214 215 220 221 221 221 222 226 232 229 189 188 202 220 238 247 243 228 232 239 242 237 235 242
221 220 221 218 216 214 212 214 216 218 216 216 217 217 215 217 220 221 222 224 226 226 226 221 208 206 215 225 239 247 250 246 246 245 245 241 242 251
Height
1528 1529 1530 1530 1530 1531 1531 1532 1533 1533 1532 1530 1529 1528 1528 1528 1528 1528 1527 1527 1527 1526 1526 1525 1524 1523 1522 1521 1521 1520 1519 1519 1518 1518 1518 1519 1520 1521
1522 1523 1524 1525 1525 1526 1526 1527 1528 1528 1528 1526 1526 1525 1524 1524 1524 1524 1524 1523 1523 1523 1522 1521 1521 1520 1519 1519 1518 1518 1518 1517 1517 1517 1517 1517 1518 1519
1517 1519 1519 1520 1520 1521 1521 1522 1523 1523 1522 1522 1521 1521 1521 1521 1520 1520 1520 1520 1520 1519 1519 1519 1518 1517 1517 1516 1516 1516 1516 1516 1516 1515 1516 1516 1517 1518
1513 1514 1515 1515 1516 1516 1517 1517 1518 1518 1518 1517 1517 1517 1517 1517 1517 1517 1517 1517 1516 1516 1516 1516 1516 1515 1515 1514 1514 1514 1514 1514 1514 1514 1515 1515 1516 1517
1508 1509 1510 1511 1511 1512 1512 1513 1513 1513 1513 1513 1513 1513 1512 1513 1513 1513 1513 1513 1513 1513 1513 1513 1513 1513 1513 1513 1512 1512 1512 1513 1513 1513 1513 1514 1515 1516
1504 1504 1505 1506 1507 1507 1508 1508 1508 1508 1508 1508 1508 1508 1508 1508 1509 1509 1509 1510 1510 1510 1510 1510 1511 1510 1511 1511 1511 1511 1511 1511 1511 1512 1512 1513 1514 1514
1499 1500 1500 1501 1502 1503 1503 1503 1503 1504 1504 1504 1504 1504 1504 1504 1505 1505 1506 1506 1506 1507 1507 1507 1508 1508 1508 1508 1508 1508 1509 1509 1510 1510 1511 1511 1512 1513
1494 1495 1496 1497 1497 1498 1499 1499 1499 1500 1499 1500 1500 1500 1500 1500 1501 1501 1502 1502 1503 1504 1504 1504 1505 1505 1505 1505 1506 1506 1506 1507 1507 1508 1509 1509 1510 1511
1490 1491 1492 1493 1493 1494 1494 1495 1495 1496 1496 1497 1496 1496 1496 1496 1497 1497 1498 1498 1499 1500 1500 1501 1501 1502 1502 1503 1503 1504 1504 1505 1505 1506 1507 1507 1508 1509
1486 1487 1488 1488 1489 1490 1491 1491 1491 1492 1492 1492 1493 1492 1493 1493 1493 1493 1494 1495 1495 1496 1497 1498 1498 1499 1499 1500 1500 1501 1501 1502 1503 1504 1504 1505 1506 1506
1482 1483 1484 1484 1485 1486 1487 1487 1488 1488 1488 1488 1488 1489 1489 1489 1489 1490 1490 1491 1491 1492 1494 1495 1495 1495 1496 1496 1497 1498 1499 1499 1500 1501 1502 1502 1503 1503
1478 1479 1480 1481 1482 1482 1483 1484 1484 1484 1484 1484 1485 1485 1485 1485 1486 1486 1487 1488 1488 1489 1490 1491 1492 1493 1493 1493 1494 1495 1495 1496 1497 1498 1499 1499 1500 1501
1474 1475 1476 1477 1478 1479 1479 1480 1480 1481 1481 1481 1481 1482 1482 1482 1482 1483 1484 1485 1486 1486 1487 1488 1489 1489 1490 1490 1491 1492 1492 1493 1494 1495 1495 1496 1497 1498
1471 1471 1472 1473 1474 1475 1476 1476 1477 1477 1478 1478 1478 1479 1479 1479 1479 1480 1480 1481 1482 1483 1484 1485 1486 1486 1487 1487 1488 1489 1489 1490 1491 1491 1492 1493 1493 1494
1467 1468 1469 1470 1470 1471 1472 1473 1474 1474 1474 1475 1475 1475 1475 1476 1476 1477 1477 1478 1479 1480 1481 1482 1483 1483 1484 1484 1485 1486 1486 1487 1487 1487 1488 1489 1489 1490
1463 1464 1465 1466 1467 1468 1469 1469 1470 1471 1471 1471 1471 1472 1472 1472 1473 1474 1474 1475 1476 1476 1477 1478 1479 1480 1480 1481 1482 1482 1483 1483 1483 1484 1484 1485 1485 1486
1458 1459 1461 1462 1463 1464 1465 1466 1466 1467 1467 1468 1468 1468 1469 1469 1470 1471 1471 1472 1472 1473 1474 1475 1475 1476 1477 1477 1478 1478 1479 1479 1479 1480 1480 1480 1481 1481
1454 1455 1456 1457 1458 1459 1460 1461 1462 1463 1463 1464 1464 1465 1465 1466 1466 1467 1467 1468 1469 1469 1470 1471 1472 1472 1473 1473 1474 1474 1474 1475 1475 1475 1475 1475 1475 1476
1449 1450 1451 1453 1454 1455 1456 1457 1458 1458 1459 1459 1460 1461 1461 1462 1462 1463 1463 1464 1465 1465 1466 1467 1468 1468 1469 1469 1469 1470 1470 1470 1470 1470 1470 1470 1470 1471
1444 1445 1447 1448 1449 1450 1451 1452 1453 1453 1454 1455 1455 1456 1457 1457 1458 1458 1459 1460 1460 1461 1462 1462 1463 1464 1465 1465 1465 1465 1466 1466 1465 1465 1465 1465 1465 1465
1440 1441 1442 1443 1444 1445 1446 1447 1448 1448 1449 1450 1450 1451 1452 1452 1453 1453 1454 1455 1455 1456 1456 1457 1458 1460 1459 1460 1459 1459 1461 1461 1460 1460 1460 1459 1459 1459
1435 1436 1437 1438 1439 1439 1440 1441 1442 1443 1443 1444 1445 1446 1446 1447 1447 1448 1449 1449 1450 1450 1451 1452 1453 1453 1453 1454 1453 1454 1455 1455 1455 1454 1454 1454 1453 1453
1429 1430 1431 1432 1433 1433 1434 1435 1436 1437 1438 1438 1439 1440 1440 1441 1441 1442 1443 1443 1444 1445 1445 1446 1447 1447 1447 1448 1448 1448 1448 1448 1448 1448 1448 1448 1448 1447